Simultaneous Nadir Overpasses (SNOs) Predictions

Prediction of SNOs between AQUA and METOP-B Satellite Orbit:

Table of predicted SNOs for the next 14.0 days since TLE Epoch: 3/18/2023
Index Date (AQUA) Time (AQUA) Lat,Lon (AQUA) SZA (AQUA ) Date (METOP-B) Time (METOP-B) Lat,Lon (METOP-B) SZA (METOP-B ) Distance(km) Time Diff (sec)
1 03/20/2023 01:33:20 74.34, 152.09 74.68 03/20/2023 01:32:47 74.33, 152.16 74.67 2.82 33
2 03/20/2023 02:22:45 -74.39, -40.37 105.29 03/20/2023 02:23:28 -74.36, -40.42 105.32 2.93 43
3 03/22/2023 19:26:41 74.28,-116.09 73.53 03/22/2023 19:25:46 74.28,-116.20 73.54 3.21 55
4 03/22/2023 20:16:07 -74.38, 51.34 106.39 03/22/2023 20:16:26 -74.37, 51.36 106.40 0.70 19
5 03/22/2023 21:05:47 75.10,-142.85 74.38 03/22/2023 21:06:51 75.08,-139.37 74.26 99.64 64
6 03/25/2023 13:19:59 74.16, -24.11 72.31 03/25/2023 13:18:47 74.13, -24.83 72.31 22.16 72
7 03/25/2023 14:09:27 -74.35, 143.09 107.51 03/25/2023 14:09:24 -74.37, 143.10 107.49 1.86 3
8 03/25/2023 14:58:54 74.42, -49.43 72.55 03/25/2023 15:00:03 74.40, -49.48 72.53 2.53 69
9 03/28/2023 08:02:46 -74.36,-125.24 108.58 03/28/2023 08:02:22 -74.35,-125.18 108.59 2.06 24
10 03/28/2023 08:52:12 74.38, 42.35 71.44 03/28/2023 08:53:01 74.38, 42.23 71.43 3.68 49
11 03/31/2023 01:56:01 -74.31, -33.40 109.71 03/31/2023 01:55:19 -74.32, -33.50 109.69 3.23 42
12 03/31/2023 02:45:28 74.39, 134.05 70.37 03/31/2023 02:45:57 74.40, 134.04 70.38 1.35 29



Historial Predications of SNOs between AQUA and METOP-B
